www.pogodaiklimat.ru

Погода и климат >> Архив погоды >> Дания >> Kegnaes


ПОГОДА в Kegnaes

  • Прогноз погоды в Kegnaes
  • Монитор погоды в Kegnaes
  • Климат города

АРХИВ ПОГОДЫ в Kegnaes

Время (UTC), дата Ветер
(напр.,м/с)
 
Видим.   Явления Облачность Т
(С)
Тd
(С)
f
(%)
Тe
(С)
Тes
(С)
Комфортность P
(гПа)
Po
(гПа)
Тmin
(С)
Tmax
(С)
R
(мм)
S
(см)
01 16.03 З 6 8000 м дымка 5/5 210 м
[]
+4.1 +3.5 96 -1 -1 1025.0 1022.7
02 16.03 З 4 8000 м дымка 4/4 240 м
[]
+4.5 +3.6 94 0 0 1024.4 1022.0
03 16.03 З 4 7000 м дымка 4/4 720 м
[]
+4.2 +3.5 95 -0 -0 1023.7 1021.4
05 16.03 З 5 9000 м дымка 5/5 800 м
[]
+4.5 +3.5 93 -1 -1 1023.1 1020.7
04 16.03 З 4 7000 м дымка 5/5 720 м
[]
+4.2 +3.6 96 -1 -1 1023.4 1021.1
06 16.03 З 6 10 км 4/4 800 м
[]
+4.6 +3.3 91 -1 -1 1022.9 1020.6 +3.4 +6.2
07 16.03 З 6 11 км ясно +5.0 +3.3 89 -0 0 1023.0 1020.6
08 16.03 З 7 11 км ясно +5.5 +3.7 88 0 +1 1022.6 1020.3
09 16.03 ЮЗ 7 12 км ясно +6.0 +3.8 86 +1 +2 1022.0 1019.7
11 16.03 ЮЗ 8 12 км ясно +7.4 +4.4 81 +3 +4 1021.0 1018.7
10 16.03 ЮЗ 7 12 км ясно +6.9 +4.1 82 +2 +4 1021.8 1019.4
12 16.03 ЮЗ 8 12 км ясно +8.9 +5.0 77 +5 +6 1020.5 1018.1
13 16.03 ЮЗ 7 н/о ясно +9.3 +5.1 75 +5 +7 1019.5 1017.2
14 16.03 ЮЗ 8 12 км ясно +9.3 +5.0 74 +5 +6 1018.7 1016.4
15 16.03 ЮЗ 8 15 км ясно +9.5 +4.9 73 +6 +6 1017.9 1015.6
16 16.03 З 10 14 км ясно +9.4 +4.6 72 +5 +5 1017.0 1014.7
17 16.03 ЮЗ 9 14 км ясно +9.1 +5.1 76 +5 +5 1016.1 1013.8
18 16.03 ЮЗ 7 13 км ясно +8.1 +5.1 81 +4 +4 1015.7 1013.4 +4.6 +9.9
19 16.03 ЮЗ 7 11 км ясно +7.3 +5.0 85 +3 +3 1014.6 1012.3
20 16.03 ЮЗ 8 8000 м дымка ясно +7.2 +5.4 88 +2 +2 1013.8 1011.5
21 16.03 ЮЗ 9 7000 м дымка ясно +7.2 +5.6 90 +2 +2 1012.9 1010.6
22 16.03 ЮЗ 10 н/о ясно +7.2 +5.6 90 +2 +2 1011.4 1009.1
23 16.03 ЮЗ 11 4800 м дымка ясно +7.5 +5.7 88 +2 +2 1010.3 1008.0
01 17.03 З 10 4300 м дымка ясно +6.6 +5.1 90 +1 +1 1009.0 1006.7
02 17.03 З 9 5000 м дымка 9/9 270 м
[]
+6.2 +4.9 91 0 0 1008.3 1006.0
03 17.03 З 7 6000 м в посл. час морось {ливн. осадки} 9/9 240 м
[]
+6.1 +5.2 94 +1 +1 1008.1 1005.8
04 17.03 З 7 8000 м дымка 4/4 360 м
[]
+5.8 +4.5 91 0 0 1007.8 1005.5
05 17.03 З 6 16 км 5/5 450 м
[]
+5.8 +3.5 85 +1 +1 1007.6 1005.3
06 17.03 З 7
{14}
14 км {ливн. осадки, морось} 1/1 420 м
[]
+5.0 +2.9 86 -0 -0 1008.1 1005.8 +5.0 +8.3
07 17.03 З 8 13 км ясно +5.2 +2.8 84 -1 -0 1008.4 1006.1
08 17.03 З 8 15 км ясно +5.9 +2.0 76 0 +1 1008.6 1006.3
09 17.03 З 10 15 км ясно +5.8 +2.2 78 -0 0 1008.3 1006.0
10 17.03 З 9 19 км ясно +6.2 +1.6 72 +1 +1 1007.8 1005.5
11 17.03 З 10 21 км {ливн. осадки, осадки} ясно +6.7 +1.5 69 +1 +1 1007.9 1005.6
12 17.03 З 12
{16}
12 км слаб. ливневой дождь {осадки} 4/4 180 м
[]
+5.6 +2.1 78 -1 -1 1007.8 1005.5 0.0
14 17.03 З 10 4700 м ливневой дождь 4/4 120 м
[]
+4.9 +3.3 89 -2 -2 1006.5 1004.2 0.3
13 17.03 З 11 9000 м слаб. ливневой дождь 5/5 120 м
[]
+5.1 +3.3 88 -2 -2 1007.0 1004.7 0.2
15 17.03 З 11 18 км слаб. ливневой дождь 4/4 120 м
[]
+5.1 +2.9 86 -2 -2 1005.8 1003.5 1
16 17.03 З 12 14 км {ливн. осадки} ясно +5.6 +2.8 82 -1 -1 1005.0 1002.7
17 17.03 З 11 10 км слаб. ливневой дождь 9/9 180 м
[]
+5.3 +3.3 87 -1 -1 1004.8 1002.5 0.3
18 17.03 З 10
{20}
11 км морось {ливн. осадки} 6/6 150 м
[]
+4.9 +3.3 89 -2 -2 1003.9 1001.6 +3.8 +7.3 0.3
20 17.03 З 10 9000 м слаб. морось {ливн. осадки, дождь} 5/5 150 м
[]
+4.9 +3.9 93 -2 -2 1002.8 1000.5 0.4
19 17.03 З 11 13 км слаб. дождь {морось} 5/5 210 м
[]
+5.1 +3.5 89 -2 -2 1003.4 1001.1 0.3
21 17.03 З 11 7000 м морось {ливн. осадки, дождь} 5/5 150 м
[]
+5.0 +4.1 94 -2 -2 1002.1 999.8 1
22 17.03 З 10 7000 м морось {дождь} 9/9 150 м
[]
+4.9 +4.1 95 -2 -2 1000.9 998.6 0.7
23 17.03 З 10 8000 м морось {дождь} 9/9 180 м
[]
+4.9 +4.0 94 -2 -2 999.5 997.3 0.5
02 18.03 ЮЗ 14 12 км морось {дождь} 9/9 150 м
[]
+4.5 +3.0 90 -3 -3 994.2 991.9 0.6
01 18.03 ЮЗ 12 10 км слаб. дождь 9/9 150 м
[]
+4.6 +3.6 93 -3 -3 995.9 993.6 0.8
03 18.03 ЮЗ 11 10 км слаб. дождь {морось} 9/9 150 м
[]
+3.9 +3.0 94 -3 -3 992.3 990.0 2
04 18.03 Ю 10 5000 м слаб. дождь 9/9 210 м
[]
+4.0 +3.5 97 -3 -3 990.5 988.2 1
05 18.03 ЮЗ 8 3600 м слаб. дождь 10/10 150 м
[]
+4.5 +4.2 98 -2 -2 988.5 986.2 2
06 18.03 З 9 4200 м слаб. ливневой дождь 9/9 180 м
[]
+5.3 +5.0 98 -1 -1 987.6 985.3 +3.6 +5.4 4
08 18.03 СЗ 10 50 км в посл. час дождь {ливн. осадки} 5/5 150 м
[]
+6.3 +4.7 89 0 0 989.1 986.8 0.2
07 18.03 З 8 5000 м в посл. час морось {ливн. осадки} 10/10 90 м
[]
+6.1 +5.8 98 0 0 987.6 985.4 0.3
09 18.03 СЗ 12 50 км в посл. час осадки {ливн. осадки} 9/9 300 м
[]
+3.9 +1.9 87 -3 -3 992.0 989.7 0.5
10 18.03 СЗ 10 45 км 4/4 480 м
[]
+4.9 +1.6 79 -2 -1 995.0 992.7
11 18.03 СЗ 9 40 км ясно +5.5 +1.4 75 -0 0 996.6 994.3
12 18.03 СЗ 8-15
{20}
40 км в посл. час осадки {ливн. осадки} 1/1 240 м
[]
+6.5 +2.5 76 +1 +2 997.6 995.4 0.2
14 18.03 СЗ 10 45 км ясно +6.7 -1.6 55 +1 +1 999.8 997.6
13 18.03 СЗ 9 45 км ясно +6.5 -0.1 63 +1 +2 998.5 996.2
15 18.03 СЗ 11 40 км ясно +6.9 -1.6 55 +2 +2 1000.5 998.3
16 18.03 З 10 45 км ясно +6.3 -1.3 58 +1 +1 1001.4 999.1
17 18.03 СЗ 7 40 км ясно +5.2 -0.5 67 0 0 1002.4 1000.1
18 18.03 СЗ 8
{17}
50 км ясно +4.3 -1.3 67 -2 -2 1003.3 1001.0 +3.9 +8.2
19 18.03 СЗ 6 40 км ясно +3.5 -1.4 70 -2 -2 1004.4 1002.1
20 18.03 СЗ 6 35 км ясно +3.0 -1.3 73 -2 -2 1005.0 1002.7
21 18.03 З 5 35 км ясно +2.6 -1.3 75 -2 -2 1005.9 1003.6
22 18.03 З 4 30 км ясно +2.3 -0.5 82 -2 -2 1006.3 1004.0
23 18.03 З 5 30 км ясно +2.3 -0.1 84 -3 -3 1006.7 1004.4
01 19.03 З 4 30 км ясно +2.7 +0.7 87 -2 -2 1007.5 1005.2
02 19.03 З 4 27 км ясно +2.3 +0.5 88 -2 -2 1007.5 1005.2
03 19.03 З 3 27 км ясно +2.0 +0.2 88 -2 -2 1007.2 1004.9
04 19.03 ЮЗ 3 25 км ясно +2.1 +0.8 91 -2 -2 1007.2 1004.9
05 19.03 ЮЗ 4 28 км ясно +2.2 +0.8 90 -3 -3 1006.8 1004.4
06 19.03 Ю 5 24 км ясно +2.5 +1.1 90 -3 -3 1006.3 1004.0 +1.9 +4.3
07 19.03 Ю 6 24 км ясно +2.9 +1.2 89 -3 -3 1005.3 1003.0
08 19.03 Ю 8 23 км ясно +3.3 +1.6 89 -3 -3 1004.8 1002.5
09 19.03 Ю 10 13 км слаб. дождь {морось} 4/4 270 м
[]
+3.2 +1.3 87 -4 -4 1003.8 1001.5 0.0
10 19.03 Ю 12 10 км слаб. дождь {морось} 9/9 210 м
[]
+2.3 +1.3 93 -6 -6 1003.0 1000.6 0.7
11 19.03 Ю 13 7000 м слаб. дождь 10/10 180 м
[]
+2.0 +1.3 95 -7 -7 1001.9 999.6 1
12 19.03 ЮВ 12 6000 м слаб. ледяной дождь {снег} 10/10 120 м
[]
+1.5 +1.0 96 -7 -7 1000.9 998.6 3
13 19.03 ЮВ 13 7000 м слаб. ливневой дождь {снег} 10/10 150 м
[]
+2.4 +1.8 96 -6 -6 999.4 997.1 0.4
14 19.03 ЮВ 11 11 км слаб. ливневой дождь 10/10 120 м
[]
+2.6 +2.0 96 -5 -5 998.7 996.4 0.1
15 19.03 ЮВ 8 8000 м в посл. час дождь {ливн. осадки, снег} 10/10 90 м
[]
+3.3 +2.9 97 -3 -3 997.8 995.5 0.6
17 19.03 З 6 900 м слаб. дождь {ливн. осадки} 10/10 90 м
[]
+5.6 +5.4 99 +1 +1 997.2 994.9 0.7
16 19.03 Ю 5 2500 м слаб. ливневой дождь 10/10 90 м
[]
+4.2 +3.9 98 -1 -1 997.4 995.1
18 19.03 З 6 3000 м слаб. дождь {ливн. осадки, снег} 9/9 180 м
[]
+5.6 +5.4 99 0 0 997.4 995.1 +1.4 +5.8 2
19 19.03 З 7 4200 м слаб. дождь {морось} 9/9 180 м
[]
+5.7 +5.5 99 0 0 997.5 995.2 1
20 19.03 З 7 9000 м слаб. ливневой дождь 10/10 150 м
[]
+5.8 +5.6 99 0 0 997.7 995.5 0.4
21 19.03 З 8 3500 м слаб. ливневой дождь 10/10 90 м
[]
+5.7 +5.5 99 -0 -0 998.5 996.2 2
23 19.03 З 8 4300 м дымка 10/10 60 м
[]
+6.3 +6.1 99 +1 +1 999.8 997.5 0.1
22 19.03 З 8 10 км в посл. час морось {ливн. осадки} 10/10 120 м
[]
+5.7 +5.5 99 -0 -0 999.0 996.7 0.2
01 20.03 З 5 18 км 10/10 120 м
[]
+5.9 +5.7 99 +1 +1 1000.5 998.2
02 20.03 З 5 16 км 10/10 60 м
[]
+5.6 +5.3 98 +1 +1 1001.4 999.1
03 20.03 З 4 20 км {дымка} 10/10 180 м
[]
+5.4 +4.8 96 +1 +1 1001.8 999.5
05 20.03 З 6 10 км 10/10 150 м
[]
+4.7 +4.2 97 -1 -1 1002.5 1000.2
04 20.03 З 4 45 км 10/10 210 м
[]
+5.2 +4.6 96 +1 +1 1002.1 999.8
06 20.03 ЮЗ 5 7000 м дымка 10/10 60 м
[]
+4.6 +4.2 97 -1 -1 1002.6 1000.3 +4.4 +6.5
07 20.03 ЮЗ 6 4500 м дымка 10/10 60 м
[]
+4.7 +4.4 98 -1 -1 1002.9 1000.6
08 20.03 ЮЗ 3 400 м туман {дымка} 10/10 60 м
[]
+5.0 +4.7 98 +1 +1 1002.7 1000.4
09 20.03 ЮЗ 5 7000 м в посл. час туман {дымка} 10/10 60 м
[]
+6.0 +5.7 98 +2 +2 1002.5 1000.2
11 20.03 Ю 7 3700 м слаб. дождь {морось} 9/9 240 м
[]
+6.7 +6.1 96 +2 +2 1001.6 999.3 0.3
10 20.03 ЮЗ 3 11 км ясно +7.3 +6.6 95 +4 +10 1002.2 1000.0
12 20.03 Ю 7 3300 м слаб. дождь {морось} 9/9 120 м
[]
+6.4 +6.1 98 +1 +1 1001.4 999.1 3
13 20.03 ЮЗ 4 7000 м слаб. морось {дождь} 9/9 240 м
[]
+6.5 +6.2 98 +2 +3 1000.6 998.3 0.2
14 20.03 Ю 5 1100 м слаб. дождь {морось} 10/10 150 м
[]
+6.3 +6.1 99 +2 +2 999.9 997.6 0.8
15 20.03 ЮЗ 7 4900 м слаб. дождь {морось} 9/9 180 м
[]
+7.0 +6.7 98 +2 +2 999.0 996.7 2
16 20.03 ЮЗ 7 4400 м морось {дождь} 9/9 210 м
[]
+7.7 +7.5 99 +3 +3 998.0 995.7 1
17 20.03 ЮЗ 10 4600 м слаб. дождь {морось} 9/9 120 м
[]
+7.8 +7.6 99 +2 +2 997.2 994.9 2
18 20.03 ЮЗ 11 4400 м морось {дождь} 9/9 90 м
[]
+7.8 +7.5 98 +2 +2 996.1 993.8 +4.6 +8.1 4
19 20.03 ЮЗ 14 3700 м слаб. дождь {морось} 9/9 120 м
[]
+7.8 +7.4 97 +1 +1 995.4 993.1 1
20 20.03 ЮЗ 17 7000 м слаб. дождь {морось} 9/9 150 м
[]
+8.4 +7.0 91 +2 +2 994.2 992.0 2
21 20.03 З 14-20
{24}
10 км в посл. час дождь {ливн. осадки} 9/9 300 м
[]
+7.1 +5.8 91 +1 +1 995.5 993.2 4
22 20.03 З 10 22 км 4/4 360 м
[]
+6.2 +5.1 93 0 0 996.8 994.6
23 20.03 З 9 16 км 9/9 240 м
[]
+6.2 +5.4 95 0 0 997.6 995.3
01 21.03 З 7 15 км ясно +5.1 +3.8 91 -1 -1 998.9 996.7
02 21.03 З 8 11 км ясно +4.8 +4.0 95 -1 -1 999.2 996.9
03 21.03 З 8 10 км ясно +4.9 +4.1 95 -1 -1 999.4 997.1
04 21.03 З 7 11 км н/о +4.5 +3.7 95 -1 -1 999.6 997.4
05 21.03 ЮЗ 7 12 км ясно +4.7 +3.5 92 -1 -1 1000.3 998.0
06 21.03 ЮЗ 9 12 км ясно +4.7 +3.5 92 -2 -2 1000.5 998.2 +4.4 +8.7
07 21.03 ЮЗ 9 15 км ясно +5.2 +3.5 89 -1 -1 1000.7 998.4
08 21.03 ЮЗ 8 15 км ясно +6.3 +4.3 87 +1 +1 1000.9 998.6
09 21.03 ЮЗ 11 19 км 1/1 420 м
[]
+6.7 +4.2 84 +1 +1 1001.2 998.9
10 21.03 ЮЗ 12 25 км ясно +7.6 +3.9 77 +2 +2 1001.1 998.8
11 21.03 З 15 23 км ясно +7.9 +3.6 74 +2 +2 1001.2 998.9
12 21.03 З 15
{21}
26 км ясно +7.7 +2.2 68 +2 +2 1001.7 999.5
14 21.03 З 12 19 км ясно +6.6 +1.8 71 +1 +1 1003.3 1001.0
13 21.03 З 11 27 км {ливн. осадки, дождь} ясно +7.9 +2.7 70 +3 +3 1002.6 1000.3
15 21.03 З 13-19
{20}
25 км {ливн. осадки, дождь} ясно +6.7 -0.4 60 +1 +1 1004.0 1001.7 0.0
16 21.03 З 13 24 км ясно +6.2 -0.1 64 -0 -0 1004.8 1002.5
17 21.03 З 13 21 км ясно +5.6 -0.3 66 -1 -1 1005.8 1003.5
18 21.03 З 12 17 км {ливн. осадки, дождь} ясно +5.1 +0.8 74 -2 -2 1006.7 1004.4 +4.6 +8.5
20 21.03 ЮЗ 12 17 км ясно +4.7 +1.3 79 -2 -2 1008.1 1005.8
19 21.03 ЮЗ 12 17 км ясно +4.9 +1.1 76 -2 -2 1007.6 1005.3
21 21.03 ЮЗ 12 19 км ясно +4.5 +1.0 78 -3 -3 1008.5 1006.2
22 21.03 ЮЗ 12 18 км ясно +4.6 +1.3 79 -2 -2 1009.2 1006.9
23 21.03 ЮЗ 11 19 км ясно +4.4 +1.4 81 -3 -3 1009.6 1007.3
00 22.03 ЮЗ 12 21 км ясно +4.5 +1.7 82 -3 -3 1010.2 1007.9
02 22.03 ЮЗ 10 21 км ясно +4.0 +1.8 86 -3 -3 1010.8 1008.5
01 22.03 ЮЗ 11 24 км ясно +4.2 +1.5 83 -3 -3 1010.4 1008.1
03 22.03 ЮЗ 10 23 км ясно +3.5 +1.6 87 -3 -3 1011.6 1009.3
04 22.03 ЮЗ 8 19 км ясно +3.6 +1.7 87 -3 -3 1011.8 1009.5
05 22.03 ЮЗ 8 19 км ясно +3.4 +1.7 89 -3 -3 1012.3 1009.9
06 22.03 ЮЗ 7 18 км ясно +3.1 +1.2 87 -3 -3 1013.0 1010.7 +3.1 +5.1
08 22.03 ЮЗ 7 16 км ясно +5.0 +2.4 83 -0 +1 1014.3 1012.0
07 22.03 ЮЗ 8 21 км ясно +3.8 +1.5 85 -3 -2 1013.7 1011.4
09 22.03 ЮЗ 6 15 км ясно +6.0 +3.2 82 +1 +4 1015.0 1012.7
10 22.03 ЮЗ 7 18 км ясно +7.5 +3.8 77 +3 +5 1015.6 1013.3
11 22.03 ЮЗ 6 20 км ясно +8.8 +3.7 70 +5 +9 1016.1 1013.8
12 22.03 ЮЗ 8 25 км ясно +8.6 +1.2 60 +5 +6 1016.5 1014.2
14 22.03 З 6 35 км ясно +9.5 +1.6 58 +6 +8 1017.0 1014.7
13 22.03 ЮЗ 8 35 км ясно +8.6 +0.9 58 +5 +6 1016.8 1014.5
15 22.03 З 5 45 км ясно +9.5 +1.4 57 +7 +8 1017.0 1014.8
16 22.03 З 5 40 км ясно +8.7 +0.7 57 +6 +6 1017.3 1015.0
17 22.03 З 3 45 км ясно +8.4 -0.8 52 +7 +7 1017.8 1015.5
18 22.03 СЗ 2 50 км ясно +6.9 -0.5 59 +5 +5 1018.6 1016.3 +3.2 +10.4
19 22.03 СВ 1 40 км ясно +6.5 -0.4 61 +6 +6 1019.3 1017.0
20 22.03 ЮВ 3 45 км ясно +5.4 +1.2 74 +3 +3 1019.9 1017.5
21 22.03 В 4 45 км ясно +5.4 +1.3 75 +2 +2 1020.3 1017.9
22 22.03 В 4 30 км ясно +4.5 +1.0 78 +1 +1 1020.4 1018.1
23 22.03 СВ 4 30 км ясно +4.4 +0.2 74 0 0 1020.6 1018.3

 

Местоположение метеостанции Kegnaes (Дания): широта 54.85 долгота 9.98 высота над уровнем моря 17 м.

В архиве по умолчанию представлена погода в Kegnaes за последнюю неделю. Архивные данные за месяц целиком и за предыдущие месяцы, начиная с января 2011 года, Вы можете получить, выбрав интересующий диапазон дат из раскрывающегося списка и нажав кнопку "Ввод!".

Внимание! Время в таблицах - всемирное. Для получения местного времени необходимо прибавить поправку, которая в Kegnaes равна 1 ч.

Смотрите также архив погоды в соседних городах и на ближайших метеорологических станциях:

Погода в Olpenitz (Германия) (20 км)
Погода в Gluecksburg (Германия) (31 км)
Погода в Taasinge (Дания) (42 км)
Погода в Leuchtturm Kiel (Германия) (43 км)
Погода в Toroe (Дания) (45 км)
Погода в Schleswig (Германия) (45 км)
Погода в Schleswig Airport (Германия) (52 км)
Погода в Kiel-Holtenau (Германия) (53 км)
Погода в Aarslev (Дания) (59 км)
Погода в Skrydstrup (Дания) (62 км)

Пояснения к столбцам:

Ветер - указаны скорость ветра в м/с - средняя за 10 мин, порывы в срок и между сроками (в фигурных скобках) и направление, откуда дует ветер: С - северный, СВ - северо-восточный, В - восточный, ЮВ - юго-восточный, Ю - южный, ЮЗ - юго-западный, З - западный, СЗ - северо-западный.
Видимость - горизонтальная дальность видимости в метрах или километрах. При видимости от 1 до 10 км при отсутствии осадков обычно наблюдается дымка, при ухудшении видимости до 1 км и менее - туман. В сухую погоду видимость может ухудшаться дымом, пылью или мглою.
Явления - указаны атмосферные явления, наблюдавшиеся в срок или в последний час перед сроком; фигурными скобками обозначены явления, наблюдавшиеся между сроками (за 1-3 часа до срока); квадратными скобками обозначены град или гололедные отложения с указанием их диаметра в мм.
Облачность - указаны через наклонную черту общая и нижняя облачность в баллах и высота нижней границы облаков в метрах; квадратными скобками обозначены формы облаков: Ci - перистые, Cs - перисто-слоистые, Cc - перисто-кучевые, Ac - высококучевые, As - высокослоистые, Sc - слоисто-кучевые, Ns - слоисто-дождевые, Cu - кучевые, Cb - кучево-дождевые. Подробнее классификацию облаков см. в Атласе облаков (PDF).
T - Температура воздуха - температура, измеренная на высоте 2 м над землей.
Td - Температура точки росы - температура, при понижении до которой содержащийся в воздухе водяной пар достигнет насыщения.
f - Относительная влажность воздуха - влажноcть воздуха, измеренная на высоте 2 м над землей.
Te - Эффективная температура - температура, которую ощущает одетый по сезону человек в тени. Характеристика душности погоды. При расчете учитывается влияние влажности воздуха и скорости ветра на теплоощущения человека.
Tes - Эффективная температура на солнце - температура, которую ощущает человек, с поправкой на солнечный нагрев. Характеристика знойности погоды. Зависит от высоты солнца над горизонтом, облачности и скорости ветра. Ночью, в пасмурную погоду, а также при ветре 12 м/с и более поправка равна нулю.
P - Атмосферное давление - приведенное к уровню моря атмосферное давление.
Po - Атмосферное давление - измеренное на уровне метеостанции атмосферное давление.
Tmin - Минимальная температура - минимум температуры воздуха на высоте 2 м над землей.
Tmax - Максимальная температура - максимум температуры воздуха на высоте 2 м над землей.
R - Количество осадков - Количество выпавших осадков, мм. При наведении курсора мыши на число - период времени, за который выпало указанное количество осадков.
S - Снежный покров - Высота снежного покрова, см. При наведении курсора мыши на число - состояние снежного покрова и степень покрытия местности в баллах.